[[{"header":{"parameterUnit":"m.s-1","parameterCategory":1,"la1":30.2991,"la2":30.254,"lo1":-89.0895,"lo2":-89.0444,"dy":0.0017,"dx":0.0017,"nx":28,"ny":28,"refTime":"2026-02-07T09:00:00:Z","depth":0,"parameterNumber":2,"parameterNumberName":"U-component_of_WINDS"},"data":[0,0,0,0,0,0,0,0,0,0,0,0,0,0,0,0,0,0,0,0,0,0,0,0,0,0,0,0,0,0,0,0,0,0,0,0,0,0,0,0,0,0,0,0,0,0,0,0,0,0,0,0,0,0,0,0,0,0,1.6119,1.612,0,1.6188,1.6189,1.6189,1.616,1.6159,1.6157,1.6156,1.6229,1.6232,1.6236,0,0,0,0,0,0,0,0,0,0,0,0,0,1.5968,1.5971,1.6119,1.612,1.6121,1.6188,1.6189,1.619,1.6161,1.6159,1.6157,1.6155,1.6228,1.6232,1.6236,0,0,0,0,0,0,0,0,0,0,0,0,0,1.6035,1.5971,1.6119,1.6115,1.6115,1.6187,1.6189,1.619,1.6161,1.6159,1.6156,1.6154,1.6226,1.6232,1.6237,1.6319,0,0,1.6253,1.6255,0,0,0,0,0,0,0,0,1.6031,1.604,1.6114,1.6115,1.6115,1.6163,1.6162,1.6233,1.6162,1.6144,1.6156,1.6153,1.6209,1.6216,1.6234,1.6322,1.6325,1.6253,1.6256,1.6259,1.626,0,0,0,0,0,0,0,1.6026,1.6037,1.6146,1.6116,1.6116,1.611,1.6117,1.6175,1.619,1.6145,1.6143,1.6151,1.6209,1.6229,1.6236,1.6326,1.6253,1.6258,1.6261,1.6263,1.6488,1.6491,0,0,0,0,0,0,1.6021,1.6033,1.6144,1.6148,1.6066,1.6115,1.6123,1.615,1.6189,1.6192,1.6154,1.615,1.6221,1.623,1.6238,1.6339,1.6259,1.6264,1.6267,1.6485,1.6489,1.6492,0,0,0,0,0,0,1.6018,1.6031,1.6141,1.609,1.6104,1.612,1.6152,1.6153,1.6173,1.6195,1.6198,1.6171,1.622,1.6231,1.6299,1.6341,1.6266,1.6271,1.6482,1.6486,1.649,1.6539,0,0,0,0,0,0,1.6014,1.603,1.606,1.6091,1.6107,1.62,1.6154,1.6156,1.6182,1.6178,1.6213,1.6216,1.6219,1.6292,1.6305,1.6346,1.6275,1.6478,1.6484,1.6489,1.6534,1.6544,1.6553,0,0,0,0,0,1.6008,1.6072,1.6062,1.6076,1.6145,1.6203,1.6212,1.6213,1.6185,1.6217,1.6231,1.6215,1.6334,1.6299,1.6313,1.6357,1.6476,1.6482,1.6488,1.6529,1.6542,1.6553,0,0,0,0,0,0,1.6046,1.6076,1.6065,1.614,1.6169,1.6198,1.6237,1.6226,1.6264,1.6259,1.6259,1.6267,1.6339,1.6355,1.6315,1.644,1.6401,1.641,1.6427,1.6439,1.6449,1.6444,1.6279,0,0,0,0,0,1.6063,1.6106,1.613,1.6194,1.6209,1.6221,1.6246,1.6244,1.6275,1.6287,1.6306,1.6338,1.6382,1.6411,1.6453,1.6536,1.6544,1.6573,1.6583,1.6591,1.66,1.6647,1.666,1.6513,1.6513,1.6512,0,0,1.6098,1.612,1.6147,1.6202,1.6224,1.6271,1.6231,1.6281,1.6317,1.6295,1.6361,1.6377,1.6412,1.6488,1.6522,1.6503,1.6642,1.6599,1.6605,1.661,1.6655,1.6669,1.6681,1.6517,1.6516,1.6516,0,0,1.6187,1.6207,1.6263,1.6287,1.632,1.6328,1.6342,1.6372,1.6382,1.6448,1.6433,1.6475,1.6551,1.6578,1.6601,1.6701,1.6689,1.6715,1.6767,1.6813,1.6824,1.6835,1.6873,1.6886,1.6723,1.6724,1.6724,0,1.6228,1.6296,1.6294,1.6346,1.6372,1.6353,1.6412,1.6434,1.6481,1.65,1.6477,1.6574,1.6596,1.6679,1.6704,1.6722,1.674,1.6712,1.6822,1.6833,1.6843,1.6879,1.6893,1.6727,1.6726,1.6726,1.6726,0,1.6345,1.6392,1.6434,1.6479,1.6509,1.6564,1.6572,1.6603,1.6599,1.6609,1.6678,1.6704,1.6752,1.6772,1.6768,1.6855,1.6843,1.6822,1.6782,1.686,1.6894,1.6908,1.6731,1.673,1.6729,1.6728,0,0,1.6459,1.6503,1.6518,1.6539,1.6576,1.6613,1.6668,1.6714,1.6742,1.6775,1.6822,1.6888,1.6869,1.6896,1.6895,1.6935,1.7016,1.691,1.691,1.693,1.7116,1.7133,1.7148,1.7007,1.701,1.7012,1.7114,0,1.6552,1.6647,1.6648,1.6736,1.6781,1.6765,1.6814,1.6842,1.6854,1.6895,1.6909,1.6956,1.6926,1.6943,1.6981,1.6998,1.7053,1.699,1.7053,1.7056,1.7046,1.7166,1.7183,1.7278,1.7127,1.7129,1.713,0,1.6673,1.6709,1.6802,1.6834,1.6853,1.6896,1.6939,1.6978,1.7011,1.7017,1.7048,1.7042,1.71,1.7058,1.7139,1.7096,1.7123,1.7135,1.7138,1.7146,1.7099,1.7178,1.7308,1.7323,1.7151,1.7149,1.7148,0,1.6749,1.6822,1.6887,1.6905,1.6943,1.6974,1.6992,1.7022,1.7051,1.7089,1.7108,1.7153,1.7178,1.7214,1.7221,1.7189,1.7303,1.7262,1.7312,1.7312,1.7337,1.7336,1.7475,1.7352,1.7351,1.7351,1.7351,0,1.6854,1.6912,1.6922,1.6962,1.7027,1.7028,1.7093,1.7109,1.7136,1.7181,1.717,1.7212,1.7218,1.7262,1.7268,1.7336,1.7347,1.7355,1.7357,1.7357,1.7357,1.7375,1.737,1.7355,1.7354,1.7353,1.7353,0,1.6951,1.6959,1.703,1.706,1.7069,1.7116,1.7143,1.7183,1.7193,1.725,1.7263,1.7281,1.7333,1.7343,1.7405,1.7409,1.749,1.7484,1.7479,1.7479,1.7529,1.7525,1.7687,1.7709,1.7569,1.757,1.7571,0,1.7017,1.7061,1.7097,1.7125,1.7144,1.719,1.7219,1.7222,1.7253,1.7295,1.7331,1.7381,1.7422,1.7506,1.7525,1.7573,1.7569,1.7622,1.7576,1.7576,1.7572,1.757,1.7576,1.7631,1.7633,1.7634,1.7635,0,1.7136,1.7138,1.7179,1.7223,1.7258,1.7293,1.7326,1.735,1.7358,1.7394,1.7446,1.7478,1.7541,1.7592,1.764,1.766,1.765,1.7649,1.7664,1.7666,1.7662,1.7667,1.7505,1.7646,1.7645,1.7644,1.7643,1.7643,1.7221,1.726,1.7291,1.7338,1.7363,1.7395,1.7434,1.745,1.7493,1.7544,1.7544,1.7602,1.7636,1.7699,1.7722,1.7769,1.7753,1.7773,1.7779,1.7784,1.779,1.7653,1.7778,1.7777,1.7777,1.7777,1.7777,0,1.734,1.7359,1.7402,1.7449,1.7487,1.7473,1.7509,1.7542,1.7593,1.7625,1.7665,1.7727,1.7777,1.78,1.785,1.7884,1.7881,1.7897,1.7895,1.7901,1.7801,1.7784,1.7899,1.7899,1.7899,1.7899,1.7899,1.7899,1.7406,1.7473,1.7479,1.7559,1.7578,1.7634,1.7657,1.7686,1.7712,1.7781,1.7822,1.7837,1.7866,1.7919,1.7965,1.797,1.799,1.8009,1.8013,1.792,1.7907,1.7896,1.788,1.8013,1.8013,1.811,1.8111,1.8111]},{"header":{"parameterUnit":"m.s-1","parameterCategory":1,"la1":30.2991,"la2":30.254,"lo1":-89.0895,"lo2":-89.0444,"dy":0.0017,"dx":0.0017,"nx":28,"ny":28,"refTime":"2026-02-07T09:00:00:Z","depth":0,"parameterNumber":3,"parameterNumberName":"V-component_of_WINDS"},"data":[0,0,0,0,0,0,0,0,0,0,0,0,0,0,0,0,0,0,0,0,0,0,0,0,0,0,0,0,0,0,0,0,0,0,0,0,0,0,0,0,0,0,0,0,0,0,0,0,0,0,0,0,0,0,0,0,0,0,-1.1941,-1.1941,0,-1.1962,-1.1962,-1.1962,-1.1991,-1.1992,-1.1992,-1.1992,-1.2012,-1.2013,-1.2013,0,0,0,0,0,0,0,0,0,0,0,0,0,-1.1926,-1.1926,-1.1941,-1.1941,-1.1942,-1.1962,-1.1962,-1.1962,-1.1991,-1.1992,-1.1992,-1.1993,-1.2012,-1.2013,-1.2013,0,0,0,0,0,0,0,0,0,0,0,0,0,-1.1938,-1.1926,-1.1941,-1.1958,-1.196,-1.1962,-1.1962,-1.1962,-1.1991,-1.1992,-1.1992,-1.1993,-1.2012,-1.2013,-1.2013,-1.1999,0,0,-1.2013,-1.2013,0,0,0,0,0,0,0,0,-1.1938,-1.1939,-1.1956,-1.1957,-1.1959,-1.1975,-1.1964,-1.1975,-1.1991,-1.1979,-1.1992,-1.1993,-1.1999,-1.2,-1.2003,-1.2,-1.2,-1.2013,-1.2013,-1.2013,-1.2013,0,0,0,0,0,0,0,-1.1937,-1.1938,-1.1949,-1.1956,-1.1958,-1.1965,-1.1968,-1.1966,-1.1985,-1.198,-1.1982,-1.1984,-1.2,-1.2002,-1.2003,-1.2001,-1.2013,-1.2013,-1.2013,-1.2013,-1.1987,-1.1987,0,0,0,0,0,0,-1.1933,-1.1937,-1.1949,-1.195,-1.195,-1.1965,-1.1968,-1.1969,-1.1985,-1.1988,-1.1984,-1.1986,-1.2002,-1.2003,-1.2004,-1.1989,-1.2013,-1.2013,-1.2013,-1.1988,-1.1987,-1.1986,0,0,0,0,0,0,-1.1933,-1.1934,-1.1948,-1.1944,-1.1946,-1.1964,-1.1966,-1.1969,-1.1971,-1.1988,-1.1991,-1.1983,-1.2003,-1.2004,-1.2,-1.199,-1.2013,-1.2013,-1.1989,-1.1988,-1.1987,-1.1957,0,0,0,0,0,0,-1.1932,-1.1934,-1.1929,-1.1944,-1.1947,-1.1943,-1.1965,-1.1969,-1.1971,-1.1974,-1.1987,-1.199,-1.2003,-1.2,-1.2,-1.199,-1.2013,-1.199,-1.1988,-1.1987,-1.1959,-1.1955,-1.1952,0,0,0,0,0,-1.1932,-1.1919,-1.1928,-1.1929,-1.1941,-1.1943,-1.1944,-1.196,-1.197,-1.1965,-1.1976,-1.199,-1.1991,-1.1999,-1.2,-1.199,-1.1991,-1.1989,-1.1987,-1.1961,-1.1956,-1.1952,0,0,0,0,0,0,-1.1902,-1.1922,-1.1932,-1.1924,-1.1931,-1.1947,-1.1941,-1.1954,-1.1958,-1.1961,-1.1979,-1.1982,-1.1976,-1.1983,-1.1991,-1.1977,-1.1993,-1.1991,-1.1973,-1.1968,-1.1965,-1.1963,-1.2014,0,0,0,0,0,-1.1895,-1.1895,-1.1912,-1.1903,-1.1907,-1.1923,-1.1925,-1.1936,-1.1945,-1.1948,-1.1958,-1.1966,-1.1968,-1.1969,-1.1971,-1.1961,-1.1964,-1.1955,-1.1951,-1.1948,-1.1946,-1.1941,-1.1937,-1.1981,-1.1981,-1.1981,0,0,-1.1879,-1.189,-1.1889,-1.1898,-1.1905,-1.1904,-1.1926,-1.1924,-1.1924,-1.1948,-1.1944,-1.1952,-1.1962,-1.1954,-1.1952,-1.196,-1.1935,-1.1946,-1.1943,-1.1943,-1.1939,-1.1934,-1.1931,-1.198,-1.198,-1.198,0,0,-1.185,-1.1859,-1.1853,-1.186,-1.187,-1.1882,-1.188,-1.1895,-1.1901,-1.1898,-1.1916,-1.1916,-1.1919,-1.1925,-1.1928,-1.1903,-1.1916,-1.1904,-1.1884,-1.1879,-1.1876,-1.1873,-1.1863,-1.1859,-1.1902,-1.1902,-1.1902,0,-1.1829,-1.183,-1.1848,-1.1845,-1.1849,-1.1871,-1.1864,-1.187,-1.1881,-1.1883,-1.1892,-1.1897,-1.1905,-1.1899,-1.1893,-1.1895,-1.1894,-1.1902,-1.1875,-1.1872,-1.1869,-1.186,-1.1857,-1.19,-1.19,-1.1901,-1.1901,0,-1.1804,-1.1804,-1.1797,-1.1808,-1.1811,-1.1806,-1.1823,-1.1824,-1.1836,-1.1846,-1.1843,-1.1853,-1.1859,-1.1858,-1.1869,-1.1854,-1.1859,-1.1871,-1.1887,-1.1863,-1.1855,-1.1852,-1.1898,-1.1898,-1.1899,-1.1899,0,0,-1.1756,-1.1777,-1.1774,-1.1779,-1.1793,-1.1793,-1.179,-1.1796,-1.1796,-1.1803,-1.1801,-1.1804,-1.1815,-1.1819,-1.1831,-1.1827,-1.1806,-1.184,-1.184,-1.1832,-1.1789,-1.1779,-1.1775,-1.1815,-1.1814,-1.1814,-1.1788,0,-1.1729,-1.1725,-1.1741,-1.1733,-1.1733,-1.1754,-1.1752,-1.176,-1.177,-1.1771,-1.1782,-1.1783,-1.1799,-1.1801,-1.1798,-1.1809,-1.1797,-1.1811,-1.1812,-1.1812,-1.1808,-1.1771,-1.1761,-1.1736,-1.1785,-1.1785,-1.1784,0,-1.1697,-1.1703,-1.1695,-1.171,-1.1711,-1.1708,-1.1715,-1.1716,-1.1726,-1.1733,-1.1738,-1.1752,-1.175,-1.1766,-1.1763,-1.1772,-1.1774,-1.1779,-1.1779,-1.1779,-1.1796,-1.1769,-1.1729,-1.1725,-1.178,-1.178,-1.1781,0,-1.1663,-1.1669,-1.1664,-1.1668,-1.1686,-1.1683,-1.169,-1.1701,-1.1703,-1.1709,-1.1711,-1.1717,-1.1719,-1.1723,-1.1738,-1.1749,-1.1734,-1.1751,-1.1739,-1.1739,-1.1734,-1.1734,-1.1693,-1.1737,-1.1737,-1.1737,-1.1737,0,-1.1631,-1.1625,-1.1649,-1.1646,-1.164,-1.1659,-1.1653,-1.1662,-1.1671,-1.167,-1.1689,-1.1688,-1.1709,-1.171,-1.1722,-1.1718,-1.1719,-1.1725,-1.1728,-1.1723,-1.1722,-1.1723,-1.1725,-1.1736,-1.1736,-1.1736,-1.1736,0,-1.1591,-1.1607,-1.1603,-1.162,-1.1625,-1.1619,-1.1634,-1.1632,-1.1643,-1.1642,-1.1643,-1.1661,-1.1663,-1.1679,-1.1685,-1.1693,-1.1684,-1.1691,-1.1681,-1.1683,-1.167,-1.1671,-1.1627,-1.1622,-1.167,-1.1669,-1.1669,0,-1.1569,-1.1565,-1.1581,-1.1583,-1.1589,-1.159,-1.1593,-1.1612,-1.1614,-1.1626,-1.1622,-1.1626,-1.1631,-1.1633,-1.1647,-1.1651,-1.1658,-1.1643,-1.1659,-1.1654,-1.1657,-1.1657,-1.1656,-1.1639,-1.1638,-1.1638,-1.1637,0,-1.1528,-1.1537,-1.154,-1.1547,-1.155,-1.1556,-1.1563,-1.1562,-1.1583,-1.1585,-1.1588,-1.1591,-1.1597,-1.1601,-1.1608,-1.1615,-1.1629,-1.1632,-1.163,-1.1624,-1.1618,-1.162,-1.167,-1.1633,-1.1633,-1.1634,-1.1634,-1.1634,-1.1496,-1.1494,-1.1505,-1.1509,-1.1516,-1.1522,-1.1521,-1.1533,-1.1536,-1.1543,-1.1554,-1.1555,-1.1566,-1.1577,-1.1583,-1.1584,-1.1592,-1.1589,-1.1588,-1.1586,-1.1583,-1.1618,-1.1586,-1.1586,-1.1586,-1.1586,-1.1586,0,-1.1456,-1.1465,-1.1468,-1.1478,-1.148,-1.1494,-1.1503,-1.1504,-1.1505,-1.1514,-1.1518,-1.1521,-1.1525,-1.1539,-1.1544,-1.1543,-1.1549,-1.1543,-1.1543,-1.1544,-1.1576,-1.1577,-1.1538,-1.1538,-1.1538,-1.1538,-1.1538,-1.1538,-1.1436,-1.1432,-1.1442,-1.1442,-1.1451,-1.1453,-1.1456,-1.1462,-1.1469,-1.1472,-1.1476,-1.1485,-1.1496,-1.1502,-1.1506,-1.151,-1.1511,-1.1503,-1.1509,-1.1538,-1.1542,-1.1547,-1.1548,-1.1503,-1.1503,-1.1477,-1.1477,-1.1477]}]]